This is the latest recevied weather packets stored in our database for station/object KM4CNW. If no packets are shown the sender has not sent any weather packets the latest 10 day(s).
| Time | Temp. | Humidity | Pressure | Rain* | Wind** | Luminosity | Snow |
|---|---|---|---|---|---|---|---|
| 1777645172 | 13.89° C | 53% | 1010.1 hPa | 0 mm | - | 234 W/m² | - |
| 1777644868 | 13.89° C | 52% | 1010.3 hPa | 0 mm | - | 278 W/m² | - |
| 1777644567 | 13.33° C | 55% | 1010.2 hPa | 0 mm | - | 368 W/m² | - |
| 1777643959 | 13.33° C | 55% | 1010.1 hPa | 0 mm | - | 184 W/m² | - |
| 1777643656 | 13.33° C | 56% | 1009.9 hPa | 0 mm | - | 141 W/m² | - |
| 1777642746 | 12.22° C | 60% | 1010.1 hPa | 0 mm | - | 172 W/m² | - |
| 1777642443 | 12.22° C | 59% | 1010.1 hPa | 0 mm | - | 159 W/m² | - |
| 1777642139 | 12.22° C | 58% | 1010.3 hPa | 0 mm | - | 103 W/m² | - |
| 1777641836 | 12.22° C | 58% | 1010.1 hPa | 0 mm | - | 85 W/m² | - |
| 1777641532 | 11.67° C | 58% | 1010 hPa | 0 mm | - | 82 W/m² | - |
| 1777641226 | 11.67° C | 59% | 1010 hPa | 0 mm | - | 108 W/m² | - |
| 1777640924 | 11.67° C | 61% | 1009.9 hPa | 0 mm | - | 97 W/m² | - |
| 1777640013 | 11.67° C | 60% | 1010.1 hPa | 0 mm | - | 50 W/m² | - |
| 1777639108 | 11.67° C | 58% | 1009.9 hPa | 0 mm | - | 76 W/m² | - |
| 1777638806 | 11.11° C | 62% | 1009.8 hPa | 0 mm | - | 64 W/m² | - |
| 1777638506 | 11.11° C | 64% | 1009.9 hPa | 0 mm | - | 54 W/m² | - |
| 1777638204 | 11.11° C | 62% | 1010.1 hPa | 0 mm | - | 27 W/m² | - |
| 1777637899 | 11.11° C | 60% | 1010 hPa | 0 mm | - | 29 W/m² | - |
| 1777637596 | 11.11° C | 60% | 1010 hPa | 0 mm | - | 22 W/m² | - |
| 1777637293 | 11.11° C | 61% | 1010.1 hPa | 0 mm | - | 25 W/m² | - |
| 1777636990 | 11.11° C | 61% | 1010.2 hPa | 0 mm | - | 26 W/m² | - |
| 1777636685 | 11.11° C | 61% | 1010.2 hPa | 0 mm | - | 32 W/m² | - |
| 1777636382 | 11.11° C | 59% | 1010.1 hPa | 0 mm | - | 21 W/m² | - |
| 1777636082 | 11.11° C | 63% | 1010.3 hPa | 0 mm | - | 24 W/m² | - |
| 1777635475 | 11.11° C | 65% | 1010.2 hPa | 0 mm | - | 22 W/m² | - |
* Rain latest hour (hover to see other rain measurements)
** Current wind speed in m/s (hover to see current wind gust speed)